Date String (YYYY-MM-DD hh:mm:ss) UTC,Instrument flags,Ambient pressure (hPa),Sample flow (lpm),Bypass flow (lpm),Sample temperature (°C),Ambient temperature (°C),ASC tube jacket temperature (°C),LED temperature (°C),Box temperature (°C),Sample RH (%),Span deviation,Mass concentration (μg/m³),Mass concentration (μg/m³),Mass concentration (μg/m³)
DateTimeUTC,F1_M11,P_M11,Q1_M11,Q2_M11,T1_M11,T2_M11,T3_M11,T4_M11,T5_M11,U1_M11,ZSPAN_M11,X2_M11,X0_M11,X1_M11
2021-09-05 22:00:00,,0830.1,5.00,0.00,29.0,26.8,00.0,38.1,30.7,09.6,0003.3,0010.30,0017.09,0009.67
2021-09-05 22:01:00,,0830.1,5.00,0.00,29.1,27.2,00.0,38.1,30.8,09.6,0003.7,0010.33,0016.46,0009.68
2021-09-05 22:02:00,,0830.1,4.99,0.00,29.1,27.6,00.0,38.1,30.9,09.5,0003.7,0010.38,0016.13,0009.70
2021-09-05 22:03:00,,0830.2,5.01,0.00,29.2,28.0,00.0,38.1,31.1,09.9,0004.0,0010.35,0016.34,0009.69
2021-09-05 22:04:00,,0830.1,5.01,0.00,29.2,28.3,00.0,38.2,31.2,09.8,0003.5,0010.30,0016.99,0009.65
2021-09-05 22:05:00,,0830.1,4.99,0.00,29.3,28.5,00.0,38.2,31.3,09.5,0003.1,0010.29,0016.65,0009.64
2021-09-05 22:06:00,,0830.1,5.00,0.00,29.3,27.6,00.0,38.2,31.0,09.4,0002.9,0010.28,0016.85,0009.62
2021-09-05 22:07:00,,0830.1,5.00,0.00,29.2,25.9,00.0,38.2,30.5,09.5,0002.3,0010.29,0016.88,0009.59
2021-09-05 22:08:00,,0830.1,5.00,0.00,29.1,25.8,00.0,38.2,30.5,09.5,0002.7,0010.26,0016.84,0009.55
2021-09-05 22:09:00,,0830.1,5.01,0.00,29.0,26.3,00.0,38.1,30.6,09.4,0002.7,0010.21,0016.67,0009.52
2021-09-05 22:10:00,,0830.1,5.00,0.00,29.0,26.7,00.0,38.1,30.7,09.5,0002.6,0010.21,0016.66,0009.49
2021-09-05 22:11:00,,0830.1,4.99,0.00,29.1,27.2,00.0,38.1,30.8,09.7,0002.4,0010.19,0016.31,0009.47
2021-09-05 22:12:00,,0830.0,5.01,0.00,29.1,27.6,00.0,38.1,30.9,09.6,0002.3,0010.14,0016.51,0009.44
2021-09-05 22:13:00,,0830.1,5.00,0.00,29.2,28.0,00.0,38.1,31.0,09.8,0001.8,0010.07,0016.48,0009.41
2021-09-05 22:14:00,,0830.1,4.98,0.00,29.2,28.0,00.0,38.2,31.0,09.4,0001.4,0010.09,0016.80,0009.42
2021-09-05 22:15:00,,0830.1,5.01,0.00,29.2,26.4,00.0,38.1,30.7,09.3,0001.7,0010.13,0015.98,0009.45
2021-09-05 22:16:00,,0830.1,5.00,0.00,29.0,25.6,00.0,38.1,30.4,09.5,0001.9,0010.15,0016.01,0009.47
2021-09-05 22:17:00,,0830.1,4.99,0.00,29.0,25.9,00.0,38.1,30.4,09.6,0001.8,0010.16,0015.57,0009.48
2021-09-05 22:18:00,,0830.0,5.01,0.00,28.9,26.4,00.0,38.1,30.5,09.7,0001.7,0010.13,0014.99,0009.48
2021-09-05 22:19:00,,0830.1,4.99,0.00,28.9,26.8,00.0,38.0,30.6,10.0,0002.0,0010.08,0014.92,0009.46
2021-09-05 22:20:00,,0830.1,5.01,0.00,29.0,27.3,00.0,38.0,30.7,09.7,0001.9,0010.06,0015.28,0009.42
2021-09-05 22:21:00,,0830.0,5.00,0.00,29.0,27.7,00.0,38.0,30.9,09.5,0002.2,0010.03,0015.27,0009.40
2021-09-05 22:22:00,,0830.1,5.00,0.00,29.1,28.0,00.0,38.1,31.0,09.7,0002.2,0009.96,0015.17,0009.36
2021-09-05 22:23:00,,0830.1,4.99,0.00,29.2,28.2,00.0,38.1,31.1,09.9,0002.1,0009.94,0014.78,0009.34
2021-09-05 22:24:00,,0830.1,5.01,0.00,29.2,27.6,00.0,38.1,30.9,09.7,0002.7,0009.89,0015.14,0009.30
2021-09-05 22:25:00,,0830.1,5.00,0.00,29.1,25.9,00.0,38.1,30.4,09.5,0003.0,0009.84,0014.75,0009.26
2021-09-05 22:26:00,,0830.1,5.00,0.00,28.9,25.6,00.0,38.0,30.3,09.5,0003.3,0009.79,0014.68,0009.22
2021-09-05 22:27:00,,0830.1,5.00,0.00,28.9,26.1,00.0,38.0,30.4,09.4,0003.5,0009.75,0014.58,0009.18
2021-09-05 22:28:00,,0830.1,4.99,0.00,28.9,26.5,00.0,38.0,30.5,09.4,0003.3,0009.69,0014.45,0009.14
2021-09-05 22:29:00,,0830.1,5.00,0.00,28.9,27.0,00.0,38.0,30.6,09.5,0003.0,0009.65,0014.74,0009.09
2021-09-05 22:30:00,,0830.1,5.00,0.00,29.0,27.4,00.0,38.0,30.8,09.5,0003.0,0009.60,0014.70,0009.06
2021-09-05 22:31:00,,0830.1,5.00,0.00,29.0,27.7,00.0,38.0,30.9,09.6,0003.0,0009.56,0014.33,0009.04
2021-09-05 22:32:00,,0830.1,5.00,0.00,29.1,28.0,00.0,38.0,31.0,09.7,0002.7,0009.52,0014.57,0009.01
2021-09-05 22:33:00,,0830.1,5.01,0.00,29.1,27.6,00.0,38.1,30.9,09.8,0002.6,0009.48,0014.72,0008.98
2021-09-05 22:34:00,,0830.0,4.99,0.00,29.0,25.8,00.0,38.0,30.3,09.7,0002.9,0009.44,0014.67,0008.93
2021-09-05 22:35:00,,0830.0,4.99,0.00,28.9,25.5,00.0,38.0,30.2,09.8,0002.5,0009.43,0014.46,0008.92
2021-09-05 22:36:00,,0830.1,5.01,0.00,28.8,26.0,00.0,38.0,30.4,09.8,0002.2,0009.45,0014.93,0008.92
2021-09-05 22:37:00,,0830.1,5.00,0.00,28.8,26.4,00.0,37.9,30.5,09.5,0002.1,0009.50,0015.71,0008.94
2021-09-05 22:38:00,,0830.0,5.00,0.00,28.9,26.9,00.0,37.9,30.6,09.6,0001.9,0009.48,0015.75,0008.94
2021-09-05 22:39:00,,0830.1,5.00,0.00,28.9,27.4,00.0,38.0,30.7,10.0,0002.2,0009.49,0015.78,0008.94
2021-09-05 22:40:00,,0830.1,5.01,0.00,29.0,27.7,00.0,38.0,30.9,09.8,0002.6,0009.51,0015.58,0008.99
2021-09-05 22:41:00,,0830.1,5.01,0.00,29.0,28.0,00.0,38.0,30.9,09.6,0002.5,0009.55,0015.51,0009.03
2021-09-05 22:42:00,,0830.1,5.01,0.00,29.1,28.1,00.0,38.0,31.0,09.6,0002.5,0009.61,0015.98,0009.10
2021-09-05 22:43:00,,0830.0,5.01,0.00,29.1,26.8,00.0,38.0,30.6,09.4,0002.5,0009.68,0016.02,0009.15
2021-09-05 22:44:00,,0830.0,5.00,0.00,28.9,25.5,00.0,38.0,30.3,09.7,0002.9,0009.76,0015.72,0009.25
2021-09-05 22:45:00,,0830.0,4.99,0.00,28.9,25.7,00.0,38.0,30.3,10.1,0002.8,0009.84,0015.76,0009.34
2021-09-05 22:46:00,,0830.0,5.01,0.00,28.8,26.2,00.0,37.9,30.4,09.8,0003.0,0009.88,0015.82,0009.38
2021-09-05 22:47:00,,0830.0,4.99,0.00,28.8,26.6,00.0,37.9,30.5,09.8,0003.2,0009.87,0015.81,0009.39
2021-09-05 22:48:00,,0830.0,5.01,0.00,28.9,27.1,00.0,37.9,30.6,09.5,0003.1,0009.86,0015.27,0009.39
2021-09-05 22:49:00,,0830.0,5.00,0.00,28.9,27.5,00.0,37.9,30.8,09.7,0003.0,0009.83,0015.91,0009.38
2021-09-05 22:50:00,,0830.1,5.00,0.00,29.0,27.8,00.0,38.0,30.9,09.5,0003.0,0009.87,0016.09,0009.39
2021-09-05 22:51:00,,0830.1,5.00,0.00,29.1,28.1,00.0,38.0,31.0,09.5,0002.8,0009.86,0016.18,0009.36
2021-09-05 22:52:00,,0830.1,4.99,0.00,29.1,28.3,00.0,38.0,31.1,09.4,0002.4,0009.89,0016.61,0009.35
2021-09-05 22:53:00,,0830.0,5.02,0.00,29.1,27.3,00.0,38.0,30.9,09.8,0002.3,0009.94,0017.32,0009.34
2021-09-05 22:54:00,,0830.0,5.00,0.00,29.0,25.8,00.0,38.0,30.4,09.7,0002.3,0009.92,0017.19,0009.33
2021-09-05 22:55:00,,0830.0,4.99,0.00,28.9,25.8,00.0,38.0,30.4,09.6,0002.0,0009.92,0017.21,0009.30
2021-09-05 22:56:00,,0829.9,5.00,0.00,28.9,26.2,00.0,38.0,30.5,09.7,0001.4,0009.93,0017.27,0009.28
2021-09-05 22:57:00,,0830.0,4.99,0.00,28.9,26.7,00.0,37.9,30.5,09.6,0001.3,0009.97,0017.91,0009.29
2021-09-05 22:58:00,,0830.0,5.00,0.00,28.9,27.1,00.0,37.9,30.7,09.6,0000.6,0009.98,0017.75,0009.30
2021-09-05 22:59:00,,0830.0,5.01,0.00,29.0,27.5,00.0,38.0,30.8,09.7,0000.1,0009.97,0017.66,0009.29
